TimeCDT,TemperatureF,Dew PointF,Humidity,Sea Level PressureIn,VisibilityMPH,Wind Direction,Wind SpeedMPH,Gust SpeedMPH,PrecipitationIn,Events,Conditions,WindDirDegrees,DateUTC
12:53 AM,73.0,71.1,93,30.07,10.0,Calm,Calm,-,N/A,,Clear,0,2013-07-08 05:53:00
1:53 AM,73.0,70.0,90,30.06,10.0,Calm,Calm,-,N/A,,Clear,0,2013-07-08 06:53:00
2:53 AM,73.0,70.0,90,30.06,10.0,NE,3.5,-,N/A,,Clear,50,2013-07-08 07:53:00
3:53 AM,72.0,70.0,93,30.08,10.0,Calm,Calm,-,N/A,,Clear,0,2013-07-08 08:53:00
4:53 AM,72.0,70.0,93,30.08,10.0,Calm,Calm,-,N/A,,Clear,0,2013-07-08 09:53:00
5:53 AM,72.0,70.0,93,30.09,10.0,Calm,Calm,-,N/A,,Clear,0,2013-07-08 10:53:00
6:53 AM,75.0,72.0,90,30.10,10.0,Calm,Calm,-,N/A,,Clear,0,2013-07-08 11:53:00
7:53 AM,78.1,73.0,84,30.10,10.0,South,3.5,-,N/A,,Clear,180,2013-07-08 12:53:00
8:53 AM,82.0,73.9,76,30.10,10.0,SSE,3.5,-,N/A,,Clear,160,2013-07-08 13:53:00
9:53 AM,88.0,72.0,59,30.11,10.0,Calm,Calm,-,N/A,,Clear,0,2013-07-08 14:53:00
10:53 AM,89.1,70.0,53,30.12,10.0,South,4.6,-,N/A,,Partly Cloudy,180,2013-07-08 15:53:00
11:53 AM,91.0,69.1,48,30.12,10.0,South,4.6,-,N/A,,Clear,180,2013-07-08 16:53:00
12:53 PM,91.9,70.0,48,30.10,10.0,SW,6.9,-,N/A,,Scattered Clouds,230,2013-07-08 17:53:00
1:53 PM,95.0,68.0,41,30.09,10.0,WSW,9.2,-,N/A,,Clear,240,2013-07-08 18:53:00
2:53 PM,93.9,66.0,40,30.07,10.0,SSW,6.9,16.1,N/A,,Scattered Clouds,200,2013-07-08 19:53:00
3:53 PM,93.9,69.1,44,30.06,10.0,Variable,4.6,-,N/A,,Mostly Cloudy,0,2013-07-08 20:53:00
4:53 PM,91.9,70.0,48,30.05,10.0,SSE,6.9,-,N/A,,Partly Cloudy,160,2013-07-08 21:53:00
5:53 PM,90.0,72.0,55,30.04,10.0,SE,11.5,-,N/A,,Mostly Cloudy,130,2013-07-08 22:53:00
6:53 PM,89.1,72.0,57,30.04,10.0,SSE,9.2,-,N/A,,Clear,160,2013-07-08 23:53:00
7:53 PM,87.1,73.0,63,30.04,10.0,SSE,6.9,-,N/A,,Clear,160,2013-07-09 00:53:00
8:53 PM,84.0,73.0,69,30.05,10.0,South,4.6,-,N/A,,Clear,170,2013-07-09 01:53:00
9:53 PM,82.9,73.0,72,30.06,10.0,SSE,5.8,-,N/A,,Clear,160,2013-07-09 02:53:00
10:53 PM,82.0,73.0,74,30.07,10.0,Calm,Calm,-,N/A,,Clear,0,2013-07-09 03:53:00
11:53 PM,81.0,73.0,77,30.07,10.0,South,3.5,-,N/A,,Clear,180,2013-07-09 04:53:00